Jonesville, VA

1:57 PM EDT on May 26, 2017 (GMT -0400)
Jonesville

Weather History for K0VG - January, 2013

Change the Weather History Date:

Saturday, January 26, 2013

  Actual Average (KLNP) Record (KLNP)
Temperature  
Mean Temperature 28 °F -  
Max Temperature 33 °F 39 °F 59 °F (2012)
Min Temperature 23 °F 23 °F 10 °F (2000)
Degree Days  
Heating Degree Days 37    
Moisture  
Dew Point 27 °F    
Average Humidity 90    
Maximum Humidity 100    
Minimum Humidity 80    
Precipitation  
Precipitation 0.00 in - - ()
Sea Level Pressure  
Sea Level Pressure 30.28 in    
Wind  
Wind Speed 2 mph (WSW)    
Max Wind Speed 7 mph    
Max Gust Speed -    
Visibility 8 miles    
Events Rain    
Averages and records for this station are not official NWS values.
T = Trace of Precipitation, MM = Missing Value Source: NWS Daily Summary

Daily Weather History Graph

Daily Weather History Graph

Search for Another Location

Airport or City:

Trip Planner

Search our weather history database for the weather conditions in past years. The results will help you decide how hot, cold, wet, or windy it might be!

Date:

Astronomy

Jan. 26, 2013 Rise Set
Actual Time 7:38 AM EST 5:52 PM EST
Civil Twilight 7:11 AM EST 6:20 PM EST
Nautical Twilight 6:40 AM EST 6:51 PM EST
Astronomical Twilight 6:09 AM EST 7:21 PM EST
Moon 5:45 PM EST 6:57 AM EST
Length of Visible Light 11h 08m
Length of Day
10h 13m
Full, 100% of the Moon is Illuminated
Jan 26
Full
Jan 26
Full
Feb 3
Last Quarter
Feb 10
New
Feb 17
First Quarter

Hourly Weather History & Observations

Time (EST) Temp. Windchill Dew Point Humidity Pressure Visibility Wind Dir Wind Speed Gust Speed Precip Events Conditions
12:15 AM 32.0 °F - 32.0 °F 100% 30.17 in 3.0 mi Calm Calm - N/A   Overcast
12:35 AM 32.0 °F - 32.0 °F 100% 30.17 in 3.0 mi Calm Calm - N/A   Overcast
12:55 AM 32.0 °F - 32.0 °F 100% 30.18 in 2.0 mi Calm Calm - N/A   Overcast
1:15 AM 32.0 °F 27.5 °F 32.0 °F 100% 30.19 in 10.0 mi West 4.6 mph - N/A   Overcast
1:55 AM 32.0 °F 28.7 °F 32.0 °F 100% 30.19 in 10.0 mi West 3.5 mph - N/A   Overcast
2:15 AM 32.0 °F 27.5 °F 30.2 °F 93% 30.19 in 10.0 mi WSW 4.6 mph - N/A   Overcast
2:35 AM 32.0 °F 27.5 °F 30.2 °F 93% 30.19 in 10.0 mi WSW 4.6 mph - N/A   Overcast
2:55 AM 32.0 °F 28.7 °F 30.2 °F 93% 30.20 in 10.0 mi West 3.5 mph - N/A   Overcast
3:15 AM 32.0 °F - 30.2 °F 93% 30.20 in 10.0 mi Calm Calm - N/A   Overcast
3:35 AM 32.0 °F - 30.2 °F 93% 30.20 in 10.0 mi Calm Calm - N/A   Overcast
3:55 AM 32.0 °F 27.5 °F 28.4 °F 87% 30.20 in 10.0 mi SW 4.6 mph - N/A   Overcast
4:15 AM 32.0 °F 26.4 °F 28.4 °F 87% 30.21 in 10.0 mi SW 5.8 mph - N/A   Overcast
4:35 AM 32.0 °F - 28.4 °F 87% 30.21 in 10.0 mi Calm Calm - N/A   Overcast
4:55 AM 32.0 °F 27.5 °F 28.4 °F 87% 30.21 in 10.0 mi SSW 4.6 mph - N/A   Overcast
5:15 AM 30.2 °F 26.7 °F 28.4 °F 93% 30.21 in 10.0 mi WSW 3.5 mph - N/A   Overcast
5:35 AM 28.4 °F 24.6 °F 26.6 °F 93% 30.21 in 10.0 mi SSW 3.5 mph - N/A   Overcast
5:55 AM 28.4 °F 23.3 °F 26.6 °F 93% 30.21 in 10.0 mi SW 4.6 mph - N/A   Overcast
6:15 AM 28.4 °F 24.6 °F 26.6 °F 93% 30.22 in 10.0 mi WSW 3.5 mph - N/A   Overcast
6:35 AM 28.4 °F - 26.6 °F 93% 30.23 in 8.0 mi Calm Calm - N/A   Overcast
6:55 AM 28.4 °F 24.6 °F 24.8 °F 86% 30.24 in 10.0 mi West 3.5 mph - N/A   Overcast
7:15 AM 28.4 °F 24.6 °F 26.6 °F 93% 30.24 in 10.0 mi WSW 3.5 mph - N/A   Scattered Clouds
7:35 AM 26.6 °F - 26.6 °F 100% 30.25 in 9.0 mi Calm Calm - N/A   Clear
7:55 AM 26.6 °F - 24.8 °F 93% 30.25 in 5.0 mi Calm Calm - N/A   Clear
8:15 AM 26.6 °F - 24.8 °F 93% 30.26 in 5.0 mi Calm Calm - N/A   Clear
8:35 AM 26.6 °F - 24.8 °F 93% 30.26 in 5.0 mi Calm Calm - N/A   Clear
8:55 AM 26.6 °F - 26.6 °F 100% 30.26 in 3.0 mi Calm Calm - N/A   Clear
9:15 AM 28.4 °F - 28.4 °F 100% 30.27 in 4.0 mi Calm Calm - N/A Rain Light Freezing Rain
9:35 AM 30.2 °F - 28.4 °F 93% 30.28 in 7.0 mi Calm Calm - N/A Rain Light Freezing Rain
9:55 AM 30.2 °F 24.3 °F 28.4 °F 93% 30.28 in 8.0 mi SW 5.8 mph - N/A   Clear
10:15 AM 32.0 °F 26.4 °F 28.4 °F 87% 30.29 in 8.0 mi SW 5.8 mph - N/A   Clear
10:35 AM 32.0 °F 25.6 °F 28.4 °F 87% 30.30 in 8.0 mi SW 6.9 mph - N/A   Clear
10:55 AM 32.0 °F 25.6 °F 28.4 °F 87% 30.30 in 8.0 mi SW 6.9 mph - N/A   Scattered Clouds
11:15 AM 32.0 °F 26.4 °F 28.4 °F 87% 30.30 in 9.0 mi SW 5.8 mph - N/A   Overcast
11:35 AM 32.0 °F 25.6 °F 28.4 °F 87% 30.30 in 9.0 mi SW 6.9 mph - N/A   Overcast
11:55 AM 32.0 °F 27.5 °F 28.4 °F 87% 30.29 in 9.0 mi West 4.6 mph - N/A   Overcast
12:15 PM 32.0 °F 27.5 °F 28.4 °F 87% 30.29 in 10.0 mi WSW 4.6 mph - N/A   Overcast
12:35 PM 32.0 °F 27.5 °F 28.4 °F 87% 30.29 in 10.0 mi West 4.6 mph - N/A   Overcast
12:55 PM 32.0 °F 28.7 °F 28.4 °F 87% 30.28 in 10.0 mi WSW 3.5 mph - N/A   Overcast
1:15 PM 32.0 °F 27.5 °F 28.4 °F 87% 30.28 in 10.0 mi West 4.6 mph - N/A   Overcast
1:35 PM 32.0 °F 27.5 °F 26.6 °F 80% 30.28 in 10.0 mi West 4.6 mph - N/A   Overcast
1:55 PM 32.0 °F 27.5 °F 28.4 °F 87% 30.27 in 10.0 mi West 4.6 mph - N/A   Overcast
2:15 PM 32.0 °F 26.4 °F 26.6 °F 80% 30.27 in 10.0 mi West 5.8 mph - N/A   Overcast
2:35 PM 32.0 °F 27.5 °F 28.4 °F 87% 30.28 in 10.0 mi West 4.6 mph - N/A   Overcast
2:55 PM 32.0 °F 27.5 °F 28.4 °F 87% 30.29 in 10.0 mi West 4.6 mph - N/A   Overcast
3:15 PM 33.8 °F - 28.4 °F 81% 30.29 in 10.0 mi Calm Calm - N/A   Overcast
3:35 PM 32.0 °F 27.5 °F 28.4 °F 87% 30.29 in 10.0 mi WNW 4.6 mph - N/A   Overcast
3:55 PM 32.0 °F 26.4 °F 28.4 °F 87% 30.31 in 10.0 mi West 5.8 mph - N/A   Overcast
4:15 PM 32.0 °F 26.4 °F 28.4 °F 87% 30.31 in 10.0 mi West 5.8 mph - N/A   Overcast
4:35 PM 32.0 °F 28.7 °F 28.4 °F 87% 30.32 in 10.0 mi WSW 3.5 mph - N/A   Overcast
4:55 PM 32.0 °F 28.7 °F 26.6 °F 80% 30.31 in 10.0 mi West 3.5 mph - N/A   Overcast
5:15 PM 32.0 °F - 26.6 °F 80% 30.32 in 10.0 mi Calm Calm - N/A   Overcast
5:35 PM 32.0 °F - 26.6 °F 80% 30.32 in 10.0 mi Calm Calm - N/A   Overcast
5:55 PM 32.0 °F 28.7 °F 26.6 °F 80% 30.32 in 10.0 mi NNW 3.5 mph - N/A   Overcast
6:15 PM 32.0 °F - 26.6 °F 80% 30.32 in 10.0 mi Calm Calm - N/A   Overcast
6:35 PM 32.0 °F 28.7 °F 26.6 °F 80% 30.33 in 10.0 mi North 3.5 mph - N/A   Overcast
6:55 PM 32.0 °F - 26.6 °F 80% 30.33 in 10.0 mi Calm Calm - N/A   Overcast
7:15 PM 30.2 °F - 26.6 °F 86% 30.34 in 10.0 mi Calm Calm - N/A   Mostly Cloudy
7:55 PM 28.4 °F 24.6 °F 24.8 °F 86% 30.35 in 10.0 mi NW 3.5 mph - N/A   Clear
8:15 PM 28.4 °F - 24.8 °F 86% 30.36 in 10.0 mi Calm Calm - N/A   Partly Cloudy
8:35 PM 28.4 °F - 24.8 °F 86% 30.36 in 10.0 mi Calm Calm - N/A   Partly Cloudy
8:55 PM 26.6 °F - 24.8 °F 93% 30.36 in 10.0 mi Calm Calm - N/A   Scattered Clouds
9:15 PM 26.6 °F - 26.6 °F 100% 30.36 in 5.0 mi Calm Calm - N/A   Partly Cloudy
9:55 PM 24.8 °F - 24.8 °F 100% 30.37 in 5.0 mi Calm Calm - N/A   Clear
10:15 PM 24.8 °F - 24.8 °F 100% 30.37 in 5.0 mi Calm Calm - N/A   Clear
10:35 PM 24.8 °F - 23.0 °F 93% 30.38 in 5.0 mi Calm Calm - N/A   Mostly Cloudy
10:55 PM 23.0 °F - 23.0 °F 100% 30.39 in 5.0 mi Calm Calm - N/A   Overcast
11:15 PM 23.0 °F - 23.0 °F 100% 30.39 in 5.0 mi Calm Calm - N/A   Mostly Cloudy
11:55 PM 23.0 °F - 23.0 °F 100% 30.39 in 5.0 mi Calm Calm - N/A   Partly Cloudy